TimeMDT,TemperatureF,Dew PointF,Humidity,Sea Level PressureIn,VisibilityMPH,Wind Direction,Wind SpeedMPH,Gust SpeedMPH,PrecipitationIn,Events,Conditions,WindDirDegrees,DateUTC
12:53 AM,36.0,27.0,70,29.78,10.0,Calm,Calm,-,N/A,,Clear,0,2013-04-07 06:53:00
1:53 AM,37.9,28.0,68,29.75,10.0,NNE,4.6,-,N/A,,Scattered Clouds,20,2013-04-07 07:53:00
2:53 AM,39.0,30.0,70,29.73,10.0,Calm,Calm,-,N/A,,Scattered Clouds,0,2013-04-07 08:53:00
3:53 AM,39.9,28.9,65,29.72,10.0,Calm,Calm,-,N/A,,Partly Cloudy,0,2013-04-07 09:53:00
4:53 AM,39.0,28.9,67,29.72,10.0,West,5.8,-,N/A,,Mostly Cloudy,270,2013-04-07 10:53:00
5:53 AM,41.0,28.9,62,29.72,10.0,SW,5.8,-,N/A,,Scattered Clouds,230,2013-04-07 11:53:00
6:53 AM,44.1,30.0,58,29.73,10.0,West,10.4,-,N/A,,Mostly Cloudy,260,2013-04-07 12:53:00
7:53 AM,46.0,32.0,58,29.75,10.0,WSW,6.9,-,N/A,,Scattered Clouds,250,2013-04-07 13:53:00
8:53 AM,52.0,33.1,49,29.74,10.0,West,5.8,-,N/A,,Clear,280,2013-04-07 14:53:00
9:53 AM,57.0,32.0,39,29.72,10.0,NW,8.1,-,N/A,,Clear,320,2013-04-07 15:53:00
10:53 AM,59.0,32.0,36,29.71,10.0,NNW,6.9,-,N/A,,Clear,330,2013-04-07 16:53:00
11:53 AM,61.0,32.0,34,29.70,10.0,Variable,3.5,-,N/A,,Clear,0,2013-04-07 17:53:00
12:53 PM,63.0,33.1,33,29.68,10.0,Calm,Calm,-,N/A,,Clear,0,2013-04-07 18:53:00
1:53 PM,64.9,32.0,29,29.63,10.0,Variable,3.5,-,N/A,,Partly Cloudy,0,2013-04-07 19:53:00
2:53 PM,66.0,30.9,27,29.60,10.0,Calm,Calm,-,N/A,,Scattered Clouds,0,2013-04-07 20:53:00
3:53 PM,64.9,28.9,26,29.58,10.0,WSW,11.5,17.3,N/A,,Overcast,240,2013-04-07 21:53:00
4:53 PM,66.0,30.0,26,29.58,10.0,SSW,10.4,-,N/A,,Partly Cloudy,210,2013-04-07 22:53:00
5:53 PM,63.0,28.9,28,29.57,10.0,SSW,8.1,-,N/A,,Mostly Cloudy,210,2013-04-07 23:53:00
6:53 PM,62.1,28.0,28,29.55,10.0,Calm,Calm,-,N/A,,Scattered Clouds,0,2013-04-08 00:53:00
7:53 PM,55.9,32.0,40,29.56,10.0,Variable,5.8,-,N/A,,Mostly Cloudy,0,2013-04-08 01:53:00
8:53 PM,48.9,30.9,50,29.57,10.0,Calm,Calm,-,N/A,,Clear,0,2013-04-08 02:53:00
9:53 PM,48.9,34.0,56,29.58,10.0,NNE,4.6,-,N/A,,Clear,20,2013-04-08 03:53:00
10:53 PM,41.0,32.0,70,29.59,10.0,Calm,Calm,-,N/A,,Clear,0,2013-04-08 04:53:00
11:53 PM,37.9,30.9,76,29.60,10.0,West,4.6,-,N/A,,Clear,260,2013-04-08 05:53:00